Date String (YYYY-MM-DD hh:mm:ss) UTC,Instrument flags,absolute air pressure of the measurement (hPa),sample flow rate (lpm),inlet stack bypass flow (lpm),air temperature of the measurement (°C),ambient temperature measured by the external sensor (°C),aerosol sample conditioner tube jacket temperature (°C),OPC LED temperature (°C),internal box temperature (°C),relative humidity of the measurement (%),span deviation,mass concentration of particles derived from Lorenz-Mie calculation of OPC scattering (μg/m³),mass concentration of particles derived from Lorenz-Mie calculation of OPC scattering (μg/m³),mass concentration of particles derived from Lorenz-Mie calculation of OPC scattering (μg/m³)
DateTimeUTC,F1_M11,P_M11,Q1_M11,Q2_M11,T1_M11,T2_M11,T3_M11,T4_M11,T5_M11,U1_M11,ZSPAN_M11,X0_M11,X2_M11,X1_M11
2024-02-01 18:00:00,SystemResetWarning,0824.8,4.99,000.00,026.2,025.7,000.0,034.3,028.0,10.8,0005.9,0015.44,0006.77,0006.00
2024-02-01 18:01:00,SystemResetWarning,0824.8,5.00,000.00,026.2,025.7,000.0,034.4,028.0,11.0,0006.0,0014.29,0006.61,0005.89
2024-02-01 18:02:00,SystemResetWarning,0824.8,5.02,000.00,026.2,025.8,000.0,034.4,028.0,10.8,0003.0,0014.91,0006.48,0005.82
2024-02-01 18:03:00,SystemResetWarning,0824.8,4.99,000.00,026.2,025.8,000.0,034.4,028.0,10.6,0000.0,0014.85,0006.30,0005.67
2024-02-01 18:04:00,SystemResetWarning,0824.7,4.99,000.00,026.3,025.8,000.0,034.4,028.0,10.7,0000.0,0014.96,0006.16,0005.51
2024-02-01 18:05:00,SystemResetWarning,0824.7,5.01,000.00,026.3,025.8,000.0,034.4,028.1,10.7,0000.0,0015.08,0006.03,0005.38
2024-02-01 18:06:00,SystemResetWarning,0824.7,5.01,000.00,026.3,025.8,000.0,034.4,028.1,10.7,0000.0,0014.52,0005.91,0005.27
2024-02-01 18:07:00,SystemResetWarning,0824.7,4.99,000.00,026.3,025.9,000.0,034.5,028.1,10.9,0000.0,0013.67,0005.85,0005.22
2024-02-01 18:08:00,SystemResetWarning,0824.7,5.01,000.00,026.3,025.9,000.0,034.5,028.1,10.9,0000.0,0013.74,0005.84,0005.21
2024-02-01 18:09:00,SystemResetWarning,0824.7,5.00,000.00,026.4,025.9,000.0,034.5,028.1,10.8,0000.0,0014.53,0005.90,0005.22
2024-02-01 18:10:00,SystemResetWarning,0824.7,5.00,000.00,026.4,025.9,000.0,034.5,028.1,10.5,0000.0,0015.42,0005.98,0005.24
2024-02-01 18:11:00,SystemResetWarning,0824.7,4.99,000.00,026.4,025.9,000.0,034.5,028.2,10.6,0000.0,0015.79,0005.98,0005.23
2024-02-01 18:12:00,SystemResetWarning,0824.7,5.01,000.00,026.4,025.9,000.0,034.5,028.2,10.6,0000.0,0015.72,0005.95,0005.20
2024-02-01 18:13:00,SystemResetWarning,0824.7,5.01,000.00,026.4,026.0,000.0,034.6,028.2,10.8,0000.0,0014.90,0005.88,0005.14
2024-02-01 18:14:00,SystemResetWarning,0824.7,5.00,000.00,026.5,026.0,000.0,034.6,028.2,10.7,0000.0,0014.81,0005.98,0005.23
2024-02-01 18:15:00,SystemResetWarning,0824.7,5.01,000.00,026.5,026.0,000.0,034.6,028.2,10.7,0000.0,0014.68,0006.12,0005.37
2024-02-01 18:16:00,SystemResetWarning,0824.7,5.00,000.00,026.5,026.0,000.0,034.6,028.3,10.7,0000.0,0015.61,0006.22,0005.48
2024-02-01 18:17:00,SystemResetWarning,0824.7,4.99,000.00,026.5,026.0,000.0,034.6,028.3,10.7,0000.0,0016.87,0006.31,0005.58
2024-02-01 18:18:00,SystemResetWarning,0824.7,5.01,000.00,026.5,026.0,000.0,034.7,028.3,10.7,0000.0,0017.35,0006.37,0005.61
2024-02-01 18:19:00,SystemResetWarning,0824.7,5.00,000.00,026.5,026.1,000.0,034.7,028.3,10.7,0000.0,0016.44,0006.36,0005.59
2024-02-01 18:20:00,SystemResetWarning,0824.6,5.00,000.00,026.6,026.1,000.0,034.7,028.3,10.6,0000.0,0016.10,0006.33,0005.59
2024-02-01 18:21:00,SystemResetWarning,0824.6,5.00,000.00,026.6,026.1,000.0,034.7,028.3,10.8,0000.0,0015.46,0006.30,0005.60
2024-02-01 18:22:00,SystemResetWarning,0824.5,5.00,000.00,026.6,026.1,000.0,034.7,028.3,10.7,0000.0,0015.37,0006.41,0005.68
2024-02-01 18:23:00,SystemResetWarning,0824.5,5.01,000.00,026.6,026.1,000.0,034.7,028.4,10.6,0000.0,0016.22,0006.62,0005.82
2024-02-01 18:24:00,SystemResetWarning,0824.5,5.00,000.00,026.6,026.1,000.0,034.8,028.4,10.8,0000.0,0016.59,0006.81,0005.94
2024-02-01 18:25:00,SystemResetWarning,0824.4,5.01,000.00,026.6,026.1,000.0,034.8,028.4,10.7,0000.0,0016.73,0006.85,0005.98
2024-02-01 18:26:00,SystemResetWarning,0824.4,5.00,000.00,026.7,026.1,000.0,034.8,028.4,10.7,0000.0,0018.39,0006.89,0006.00
2024-02-01 18:27:00,SystemResetWarning,0824.4,4.99,000.00,026.7,026.2,000.0,034.8,028.4,10.8,0000.0,0018.01,0006.95,0006.03
2024-02-01 18:28:00,SystemResetWarning,0824.4,4.99,000.00,026.7,026.2,000.0,034.8,028.4,10.9,0000.0,0018.12,0007.09,0006.11
2024-02-01 18:29:00,SystemResetWarning,0824.4,4.99,000.00,026.7,026.2,000.0,034.9,028.4,10.8,0000.0,0018.26,0007.21,0006.23
2024-02-01 18:30:00,SystemResetWarning,0824.4,5.00,000.00,026.7,026.2,000.0,034.9,028.4,10.8,0003.5,0018.59,0007.34,0006.31
2024-02-01 18:31:00,SystemResetWarning,0824.4,5.00,000.00,026.7,026.2,000.0,034.9,028.5,10.6,0005.5,0018.38,0007.39,0006.36
2024-02-01 18:32:00,SystemResetWarning,0824.4,5.00,000.00,026.7,026.2,000.0,034.9,028.5,10.6,0005.7,0018.47,0007.38,0006.37
2024-02-01 18:33:00,SystemResetWarning,0824.4,5.01,000.00,026.7,026.2,000.0,034.9,028.5,10.6,0005.8,0019.28,0007.44,0006.40
2024-02-01 18:34:00,SystemResetWarning,0824.4,5.00,000.00,026.8,026.2,000.0,034.9,028.5,10.5,0005.6,0019.56,0007.46,0006.41
2024-02-01 18:35:00,SystemResetWarning,0824.4,5.00,000.00,026.8,026.2,000.0,034.9,028.5,10.8,0005.8,0019.54,0007.49,0006.47
2024-02-01 18:36:00,SystemResetWarning,0824.4,5.00,000.00,026.8,026.2,000.0,034.9,028.5,10.7,0005.8,0020.58,0007.60,0006.55
2024-02-01 18:37:00,SystemResetWarning,0824.4,5.00,000.00,026.8,026.3,000.0,035.0,028.5,10.9,0005.8,0019.55,0007.69,0006.65
2024-02-01 18:38:00,SystemResetWarning,0824.4,5.00,000.00,026.8,026.3,000.0,035.0,028.6,10.8,0005.9,0019.52,0007.81,0006.74
2024-02-01 18:39:00,SystemResetWarning,0824.4,4.98,000.00,026.8,026.3,000.0,035.0,028.6,10.5,0006.1,0020.23,0007.86,0006.79
2024-02-01 18:40:00,SystemResetWarning,0824.4,5.00,000.00,026.8,026.3,000.0,035.0,028.6,10.3,0006.3,0021.06,0007.86,0006.78
2024-02-01 18:41:00,SystemResetWarning,0824.4,5.01,000.00,026.8,026.3,000.0,035.0,028.6,10.3,0006.4,0022.30,0007.75,0006.70
2024-02-01 18:42:00,SystemResetWarning,0824.3,5.00,000.00,026.9,026.3,000.0,035.0,028.6,10.3,0006.4,0023.91,0007.76,0006.69
2024-02-01 18:43:00,SystemResetWarning,0824.3,5.00,000.00,026.9,026.3,000.0,035.1,028.6,10.1,0006.3,0024.80,0007.81,0006.72
2024-02-01 18:44:00,SystemResetWarning,0824.3,5.00,000.00,026.9,026.3,000.0,035.1,028.6,10.1,0006.2,0023.73,0007.65,0006.62
2024-02-01 18:45:00,SystemResetWarning,0824.3,5.00,000.00,026.9,026.4,000.0,035.1,028.6,10.1,0006.4,0023.76,0007.54,0006.54
2024-02-01 18:46:00,SystemResetWarning,0824.2,5.00,000.00,026.9,026.4,000.0,035.1,028.6,10.1,0006.2,0023.90,0007.39,0006.40
2024-02-01 18:47:00,SystemResetWarning,0824.2,5.00,000.00,026.9,026.4,000.0,035.1,028.7,10.0,0006.6,0022.87,0007.23,0006.29
2024-02-01 18:48:00,SystemResetWarning,0824.1,4.99,000.00,026.9,026.4,000.0,035.1,028.7,10.2,0006.7,0022.43,0007.13,0006.19
2024-02-01 18:49:00,SystemResetWarning,0824.1,5.00,000.00,026.9,026.4,000.0,035.1,028.6,10.1,0006.7,0022.09,0007.01,0006.12
2024-02-01 18:50:00,SystemResetWarning,0824.2,5.00,000.00,026.9,026.4,000.0,035.1,028.7,10.0,0001.8,0020.21,0006.93,0006.09
2024-02-01 18:51:00,SystemResetWarning,0824.2,5.01,000.00,027.0,026.4,000.0,035.2,028.7,10.1,0000.0,0019.37,0006.81,0006.02
2024-02-01 18:52:00,SystemResetWarning,0824.2,5.01,000.00,027.0,026.4,000.0,035.2,028.7,10.1,0000.0,0018.39,0006.89,0006.07
2024-02-01 18:53:00,SystemResetWarning,0824.2,5.00,000.00,027.0,026.4,000.0,035.2,028.7,10.1,0000.0,0017.21,0006.91,0006.09
2024-02-01 18:54:00,SystemResetWarning,0824.1,5.00,000.00,027.0,026.4,000.0,035.2,028.7,10.4,0000.0,0015.48,0006.87,0006.08
2024-02-01 18:55:00,SystemResetWarning,0824.1,4.99,000.00,026.9,025.4,000.0,035.3,028.2,10.4,0002.5,0018.65,0007.12,0006.28
2024-02-01 18:56:00,SystemResetWarning,0823.9,5.00,000.00,026.5,023.3,000.0,035.3,027.1,10.7,0000.0,0019.20,0007.38,0006.53
2024-02-01 18:57:00,SystemResetWarning,0824.0,5.01,000.00,026.1,022.9,000.0,035.3,026.8,10.9,0001.8,0019.62,0007.70,0006.78
2024-02-01 18:58:00,SystemResetWarning,0823.9,5.01,000.00,026.0,023.2,000.0,035.1,026.9,10.9,0006.9,0020.00,0008.00,0007.00
2024-02-01 18:59:00,SystemResetWarning,0824.0,5.00,000.00,026.0,023.6,000.0,034.9,027.1,10.8,0007.2,0021.45,0008.22,0007.13
